Regional Weather Roundup
Issued by NWS State College, PA

Home | Current Version | Previous Version | Text Only | Print | Product List | Glossary On
Versions: 1 2 3 4 5 6 7 8 9 10 11 12 13 14 15 16 17 18 19 20 21 22 23 24 25 26 27 28 29 30 31 32 33 34 35 36 37 38 39 40 41 42 43 44 45 46 47 48 49 50
000
ASUS41 KCTP 061010
RWRCTP

REGIONAL WEATHER ROUNDUP
NATIONAL WEATHER SERVICE STATE COLLEGE PA
500 AM EST FRI MAR 06 2015

Note: "fair" indicates few or no clouds below 12,000 feet with no
significant weather and/or obstructions to visibility.

* = STATION THAT DOES NOT REPORT PRECIPITATION /E.G. RAIN...SNOW...ETC/
    THUNDER OR FOG.

PAZ002>004-007>009-013>016-020>023-029>032-061100-
WESTERN PENNSYLVANIA

CITY           SKY/WX    TMP DP  RH WIND       PRES   REMARKS
ERIE           MOCLDY     0  -7  72 S8        30.50S WCI -14
MEADVILLE      PTCLDY    -2  -8  76 S6        30.43S WCI -14
FRANKLIN*      PTCLDY    -6 -11  77 SW6       30.44R WCI -18
NEW CASTLE     FAIR      -5  -9  83 CALM      30.51R
BEAVER COUNTY  NOT AVBL
BUTLER*        PTCLDY    -4  -8  84 CALM      30.49R
PITTSBURGH INT PTCLDY    -1  -5  82 CALM      30.48S
PITTSBURGH     PTCLDY     1  -3  83 S6        30.48R WCI -10
INDIANA*       CLEAR     -8 -11  84 CALM      30.51R
LATROBE        PTCLDY    -2  -6  84 CALM      30.52R
WASHINGTON CO* PTCLDY    -9 -13  84 CALM      30.50R
$$

PAZ004>006-010>012-017>019-024>028-033>037-041-042-045-046-049>053-061100-
CENTRAL PENNSYLVANIA

CITY           SKY/WX    TMP DP  RH WIND       PRES   REMARKS
BRADFORD       MOCLDY    -7 -12  79 CALM      30.34R
DUBOIS         PTCLDY    -5 -10  79 SW5       30.39R WCI -16
CLEARFIELD     MOCLDY    -3  -7  82 CALM      30.43R
JOHNSTOWN      MOCLDY     1  -5  75 W8        30.34R WCI -13
ALTOONA        PTCLDY     4  -4  69 N3        30.44R
STATE COLLEGE  PTCLDY     3  -4  69 SW3       30.46R
WILLIAMSPORT   PTCLDY     4  -4  69 W6        30.52R WCI  -7
SELINSGROVE    MOCLDY     1  -5  75 NW6       30.52R WCI -10
FT INDIANTOWN  MOCLDY     7  -4  59 S3        30.49R
CAPITAL CITY   PTCLDY     9  -2  61 W3        30.52R
HARRISBURG     PTCLDY     7  -2  66 NW7       30.52R WCI  -5
YORK           MOCLDY    -9 -12  87 W5        30.50R WCI -20
$$

PAZ038>040-043-044-047-048-054-055-060>062-067>071-061100-
EASTERN PENNSYLVANIA

CITY           SKY/WX    TMP DP  RH WIND       PRES   REMARKS
SCRANTON       PTCLDY     6  -4  63 NW7       30.44R WCI  -6
MOUNT POCONO   PTCLDY     2  -4  76 NW10G20   30.28R WCI -14
ALLENTOWN      PTCLDY     5  -4  66 CALM      30.49R
QUAKERTOWN*    MOSUNNY    7   0  72 N5        30.47R WCI  -2
READING        PTCLDY     7  -2  66 N9        30.49R WCI  -7
LANCASTER      PTCLDY     8  -2  63 NW7       30.50R WCI  -3
COATESVILLE    FAIR      10   1  67 N7        30.46R WCI   0
POTTSTOWN      PTCLDY     6  -1  73 CALM      30.50R
BLUE BELL      PTCLDY    10   3  72 CALM      30.48R
DOYLESTOWN     PTCLDY     7   0  73 N7        30.47R WCI  -5
WILLOW GROVE   NOT AVBL
NORTH PHILA    CLEAR     11   1  64 N8        30.51R WCI  -1
PHILADELPHIA   CLEAR     13   2  61 N10       30.52R WCI   0
$$


USA.gov is the U.S. government's official web portal to all federal, state and local government web resources and services.